www.pogodaiklimat.ru

Погода и климат >> Архив погоды >> Канада >> Spence bay


ПОГОДА в Spence bay

  • Прогноз погоды в Spence bay
  • Монитор погоды в Spence bay
  • Климат города

АРХИВ ПОГОДЫ в Spence bay

Время (UTC), дата Ветер
(напр.,м/с)
 
Видим.   Явления Облачность Т
(С)
Тd
(С)
f
(%)
Тe
(С)
Тes
(С)
Комфортность P
(гПа)
Po
(гПа)
Тmin
(С)
Tmax
(С)
R
(мм)
R24
(мм)
S
(см)
09 10.12 Ю 13 4800 м 8/8 600 м
[]
-17.0 -19.9 78 -31 -31 опасность
обморожения
1011.3 1007.6
12 10.12 1600 м слабый снег н/о -16.8 -19.7 78 -31 -31 опасность
обморожения
1008.7 1005.0 -20.5
15 10.12 Ю 14 1600 м 5/5 300 м
[]
-15.6 -18.4 79 -29 -29 1005.7 1002.0
18 10.12 800 м слабый снег {метель} н/о -14.7 -17.3 81 -28 -28 1002.3 998.6 -22.5 -14.7 0.6 17
21 10.12 Ю 14 800 м 8/8 200 м
[]
-13.8 -16.2 82 -27 -27 997.2 993.5
00 11.12 800 м слабый снег {метель} н/о -12.0 -14.1 84 -24 -24 993.4 989.8 -17.4 -12.0 0.8 18
03 11.12 Ю 14 800 м 8/8 300 м
[]
-11.9 -14.1 84 -25 -25 990.3 986.7
06 11.12 1600 м слабый снег н/о -11.2 -13.3 84 -23 -23 988.7 985.1 -17.4 -11.1 52
09 11.12 Ю 13 1600 м 3/3 300 м
[]
-12.0 -14.3 83 -24 -24 987.0 983.4
12 11.12 1600 м слабый снег н/о -11.5 -13.7 84 -24 -24 984.8 981.2 -12.2 -11.1
15 11.12 ЮЗ 10 1600 м 3/3 200 м
[]
-9.7 -11.5 87 -20 -20 983.7 980.1
18 11.12 4000 м слабый снег {метель} н/о -10.8 -13.2 82 -21 -21 984.3 980.7 -14.7 -9.1 0.2 20
21 11.12 ЮЗ 7 4000 м 9/9 200 м
[]
-11.0 -12.8 87 -20 -20 985.2 981.6
00 12.12 З 9 16 км слабый снег 10/10 300 м
[Sc]
-13.9 -16.9 78 -25 -25 988.5 984.9 -13.9 -9.1 0.2 20
03 12.12 СЗ 6 24 км 4/4 100 м
[]
-18.5 -21.9 75 -29 -29 991.1 987.5
06 12.12 СЗ 7 24 км ледяные иглы {снег} 6/5 1000 м
[Sc]
-20.1 -23.8 72 -32 -32 опасность
обморожения
992.9 989.3 -20.7 -9.1 83
09 12.12 З 4 16 км 8/0
[]
-21.2 -25.0 71 -30 -30 995.3 991.6
12 12.12 С 3 16 км ледяные иглы {снег} 4/3 600 м
[Sc Ac As]
-21.9 -25.8 71 -30 -30 996.4 992.7 -21.9 -9.1
15 12.12 В 1 24 км 9/9 600 м
[]
-21.7 -25.6 71 -25 -25 996.8 993.1
18 12.12 4000 м слабый снег н/о -20.1 -23.5 74 -26 -26 997.2 993.5 -23.2 -19.6 0.0 20
21 12.12 В 2 4000 м 8/8 600 м
[]
-18.7 -21.7 77 -23 -23 997.7 994.0
00 13.12 3200 м слабый снег н/о -18.5 -21.6 77 -28 -28 997.5 993.8 -23.2 -17.7 2 21
03 13.12 СВ 5 4000 м 4/4 600 м
[]
-17.7 -20.7 77 -27 -27 997.1 993.4
06 13.12 СВ 5 16 км слабый снег 10/10 1000 м
[Sc]
-16.9 -19.9 77 -26 -26 997.3 993.6 -23.2 -16.9 7
09 13.12 СВ 5 4800 м 10/10 600 м
[]
-16.3 -19.0 80 -26 -26 997.8 994.1
12 13.12 СВ 7 24 км в посл. час снег 9/9 600 м
[Sc]
-15.9 -19.0 77 -27 -27 998.9 995.2 -18.5 -16.9
15 13.12 СВ 8 16 км 10/10 600 м
[]
-16.6 -19.9 76 -28 -28 999.3 995.6
18 13.12 4800 м слабый снег н/о -17.0 -20.2 76 -30 -30 999.7 996.0 -20.1 -15.7 0.0 23
21 13.12 СВ 10 1600 м 5/5 600 м
[]
-17.0 -20.2 76 -30 -30 1000.1 996.4
00 14.12 4000 м слабый снег н/о -17.1 -20.3 76 -30 -30 1000.2 996.5 -17.2 -15.9 0.6 23
03 14.12 СВ 12 400 м н/о -17.5 -20.5 77 -31 -31 опасность
обморожения
999.1 995.4
06 14.12 СВ 12 <100 м снег {метель} н/о -17.8 -20.7 78 -32 -32 опасность
обморожения
997.9 994.2 -17.8 -15.7 41
09 14.12 СВ 12 <100 м н/о -17.2 -20.1 78 -31 -31 опасность
обморожения
996.6 992.9
12 14.12 СВ 12 <100 м слабый снег {метель} н/о -17.4 -20.3 78 -31 -31 опасность
обморожения
997.2 993.5 -18.1 -15.7 28
15 14.12 СВ 12 <100 м н/о -17.0 -19.8 79 -31 -31 опасность
обморожения
995.0 991.3
18 14.12 400 м слабый снег н/о -15.8 -18.5 80 -29 -29 994.7 991.0 -18.1 -15.8 1 29
21 14.12 СВ 12 400 м 4/4 300 м
[]
-15.2 -17.8 80 -28 -28 994.8 991.1
00 15.12 1600 м слабый снег н/о -13.6 -16.0 82 -25 -25 994.8 991.1 -18.1 -13.6 1 30
03 15.12 СВ 10 1600 м 5/5 300 м
[]
-12.4 -14.8 82 -23 -23 994.3 990.7
06 15.12 СВ 11 1600 м слабый ливневой снег 8/8 300 м
[Sc]
-11.7 -13.9 84 -23 -23 994.7 991.1 -18.1 -11.7 1 82
09 15.12 СВ 10 1600 м 8/8 300 м
[]
-11.3 -13.5 84 -22 -22 995.3 991.7
12 15.12 3200 м слабый ливневой снег н/о -12.2 -14.7 82 -23 -23 996.9 993.3 -13.6 -11.7 0.4 28
15 15.12 СВ 12 3200 м 8/8 1000 м
[]
-13.2 -15.8 81 -25 -25 997.7 994.1
18 15.12 3600 м слабый снег {ливн. осадки} н/о -14.9 -17.6 80 -27 -27 999.8 996.1 -15.8 -11.2 0.4 29
21 15.12 С 7 6000 м 6/6 300 м
[]
-16.1 -19.1 78 -27 -27 1001.2 997.5
00 16.12 С 4 6000 м слабый снег 8/6 300 м
[Sc Ac trans]
-16.6 -19.7 77 -24 -24 1003.4 999.7 -17.1 -12.2 0.4 29
03 16.12 С 5 6000 м 8/8 1000 м
[]
-17.8 -21.0 76 -27 -27 1004.8 1001.1
06 16.12 С 5 16 км слабый снег 4/4 600 м
[Sc Ac As]
-18.4 -21.4 77 -28 -28 1006.3 1002.6 -19.3 -11.2 0.2 151
09 16.12 С 4 24 км 3/3 600 м
[]
-19.7 -22.7 77 -28 -28 1008.0 1004.3
12 16.12 С 3 16 км ледяные иглы {снег} 3/3 1000 м
[Sc Ac trans]
-21.9 -24.9 77 -29 -29 1009.2 1005.5 -21.9 -11.2 0.0 29
15 16.12 С 3 24 км 5/5 600 м
[]
-21.3 -24.1 78 -28 -28 1010.2 1006.5
18 16.12 СВ 3 24 км ледяные иглы {снег} 8/3 600 м
[Sc Ac As]
-21.7 -25.0 75 -29 -29 1011.2 1007.5 -23.1 -17.9 0.0 29
21 16.12 С 1 24 км 8/8 1000 м
[]
-21.6 -24.8 75 -22 -22 1013.1 1009.3
00 17.12 С 2 24 км ледяные иглы {снег} 5/0 2000 м
[Ac As]
-22.3 -26.0 72 -27 -27 1014.4 1010.6 -23.6 -20.7 0.0 29
03 17.12 С 3 24 км 8/8 1500 м
[]
-24.6 -27.8 75 -32 -32 опасность
обморожения
1014.6 1010.8
06 17.12 С 4 24 км ледяные иглы {снег} ясно -26.6 -29.9 74 -36 -36 опасность
обморожения
1015.2 1011.4 -27.3 -17.9 0.0 29

 

Местоположение метеостанции Spence bay (Канада): широта 69.55 долгота -93.58 высота над уровнем моря 28 м.

В архиве по умолчанию представлена погода в Spence bay за последнюю неделю. Архивные данные за месяц целиком и за предыдущие месяцы, начиная с января 2011 года, Вы можете получить, выбрав интересующий диапазон дат из раскрывающегося списка и нажав кнопку "Ввод!".


*Определитесь, кто Вы:
робот инопланетянин человек

Внимание! Время в таблицах - всемирное. Для получения местного времени необходимо прибавить поправку, которая в Spence bay равна -6 ч.

Смотрите также архив погоды в соседних городах и на ближайших метеорологических станциях:

Погода в Shepherd Bay (Канада) (81 км)
Погода в Gjoa Haven Climate (Канада) (136 км)
Погода в Kugaaruk climate (Канада) (188 км)
Погода в Pelly Bay (Канада) (198 км)
Погода в Hat Island (Канада) (291 км)
Погода в Back River MAPS (Канада) (405 км)
Погода в Wager Bay (Канада) (444 км)
Погода в Cambridge Bay Gsn (Канада) (454 км)
Погода в Cambridge Bay Arpt (Канада) (454 км)
Погода в Arctic Bay (Канада) (490 км)

Пояснения к столбцам:

Ветер - указаны скорость ветра в м/с - средняя за 10 мин, порывы в срок и между сроками (в фигурных скобках) и направление, откуда дует ветер: С - северный, СВ - северо-восточный, В - восточный, ЮВ - юго-восточный, Ю - южный, ЮЗ - юго-западный, З - западный, СЗ - северо-западный.
Видимость - горизонтальная дальность видимости в метрах или километрах. При видимости от 1 до 10 км при отсутствии осадков обычно наблюдается дымка, при ухудшении видимости до 1 км и менее - туман. В сухую погоду видимость может ухудшаться дымом, пылью или мглою.
Явления - указаны атмосферные явления, наблюдавшиеся в срок или в последний час перед сроком; фигурными скобками обозначены явления, наблюдавшиеся между сроками (за 1-3 часа до срока); квадратными скобками обозначены град или гололедные отложения с указанием их диаметра в мм.
Облачность - указаны через наклонную черту общая и нижняя облачность в баллах и высота нижней границы облаков в метрах; квадратными скобками обозначены формы облаков: Ci - перистые, Cs - перисто-слоистые, Cc - перисто-кучевые, Ac - высококучевые, As - высокослоистые, Sc - слоисто-кучевые, Ns - слоисто-дождевые, Cu - кучевые, Cb - кучево-дождевые. Подробнее классификацию облаков см. в Атласе облаков (PDF).
T - Температура воздуха - температура, измеренная на высоте 2 м над землей.
Td - Температура точки росы - температура, при понижении до которой содержащийся в воздухе водяной пар достигнет насыщения.
f - Относительная влажность воздуха - влажноcть воздуха, измеренная на высоте 2 м над землей.
Te - Эффективная температура - температура, которую ощущает одетый по сезону человек в тени. Характеристика душности погоды. При расчете учитывается влияние влажности воздуха и скорости ветра на теплоощущения человека.
Tes - Эффективная температура на солнце - температура, которую ощущает человек, с поправкой на солнечный нагрев. Характеристика знойности погоды. Зависит от высоты солнца над горизонтом, облачности и скорости ветра. Ночью, в пасмурную погоду, а также при ветре 12 м/с и более поправка равна нулю.
P - Атмосферное давление - приведенное к уровню моря атмосферное давление.
Po - Атмосферное давление - измеренное на уровне метеостанции атмосферное давление.
Tmin - Минимальная температура - минимум температуры воздуха на высоте 2 м над землей.
Tmax - Максимальная температура - максимум температуры воздуха на высоте 2 м над землей.
R - Количество осадков - Количество выпавших осадков за период времени, мм. При наведении курсора мыши на число - период времени, за который выпало указанное количество осадков.
R24 - Количество осадков - Количество выпавших осадков за 24 часа, мм.
S - Снежный покров - Высота снежного покрова, см. При наведении курсора мыши на число - состояние снежного покрова и степень покрытия местности в баллах.